Theta_e
298 298 298 299 299 299 299 299 299 300 300 300 300 301 301 302 304 305 307 314 315 315 317 318 325 316 315 328 331 332 328 325 324 325 326 327 328 331 330 332 331 332 332 332 333
299 299 300 300 300 300 300 299 299 299 299 300 300 300 300 301 302 305 311 312 312 312 316 318 322 326 326 327 330 330 332 330 324 324 324 325 326 327 329 330 332 332 332 332 332
300 301 301 301 301 301 301 301 301 300 300 300 299 299 299 300 300 307 313 313 313 312 312 318 318 319 325 332 329 332 333 332 331 329 326 326 327 328 329 329 331 331 331 331 332
300 300 300 300 300 300 300 300 300 301 301 301 300 300 299 299 302 312 312 313 313 314 310 314 316 316 316 321 326 327 330 332 331 330 329 329 329 328 328 329 331 331 330 330 330
300 301 301 301 301 301 300 300 300 300 300 301 301 301 300 300 301 312 313 312 312 314 311 314 315 315 313 315 321 324 325 327 327 327 329 329 329 328 329 330 330 330 330 329 329
301 301 301 301 301 301 301 301 301 301 300 299 300 302 305 305 302 303 305 305 310 313 313 312 314 315 314 315 315 319 321 324 325 324 324 324 326 327 327 327 327 328 328 328 328
300 300 300 300 300 300 300 300 300 301 300 299 300 305 307 306 303 302 302 307 310 312 312 312 314 314 316 315 317 317 317 319 319 320 321 324 324 325 326 326 326 328 328 329 329
300 300 300 300 300 300 300 301 303 305 301 302 304 309 308 307 308 305 304 305 309 310 310 312 313 313 314 316 317 318 319 319 320 321 322 322 324 325 327 327 327 327 327 328 328
300 300 300 300 300 300 302 305 307 307 308 307 306 309 309 309 310 310 309 306 309 309 310 310 311 311 313 314 315 315 321 322 322 322 322 322 324 324 326 326 326 327 327 327 328
300 301 300 301 300 301 306 307 306 310 309 308 311 311 309 311 310 312 310 309 308 310 310 309 309 309 308 312 318 317 318 321 322 323 323 323 323 323 324 324 325 325 325 326 326
300 301 301 301 301 304 307 307 307 307 306 306 306 309 308 304 307 310 310 308 309 309 306 308 306 309 310 312 315 317 319 321 322 322 323 323 323 323 323 324 323 324 325 325 327
300 301 301 302 304 307 307 307 306 306 306 307 305 306 307 306 306 305 308 306 306 307 307 307 307 308 310 312 312 313 314 316 316 317 320 322 323 323 323 323 324 324 325 325 326
300 301 303 303 305 307 307 306 306 306 306 306 308 310 309 308 307 307 306 307 305 305 306 310 310 310 310 311 313 313 313 315 316 316 316 316 316 317 318 319 320 321 323 325 327
301 301 304 304 306 307 307 305 306 306 304 307 309 308 308 308 307 306 305 307 306 305 305 305 306 308 311 309 312 313 314 314 314 314 315 316 316 317 318 319 319 320 321 323 324
301 301 305 306 306 307 306 307 306 307 306 308 309 307 308 308 310 311 312 307 307 306 305 306 306 307 308 310 312 311 314 315 315 315 314 315 314 316 317 319 318 319 322 323 324
301 301 305 307 306 307 307 307 307 305 307 308 307 308 309 309 310 311 312 309 309 307 307 306 307 306 306 308 308 309 313 313 314 313 315 315 315 317 316 317 317 320 323 324 324
301 302 305 308 308 307 307 308 303 305 307 306 307 308 309 308 309 311 311 312 313 313 310 308 307 307 308 307 307 307 307 310 312 315 316 315 315 317 317 318 317 317 320 322 324
301 301 309 309 308 307 307 304 305 308 308 308 307 308 308 308 308 309 309 310 311 311 312 313 314 313 313 309 307 305 306 310 313 315 316 316 317 317 316 317 318 319 320 322 324
303 305 308 310 309 308 308 302 307 308 308 308 308 308 308 308 309 309 309 309 310 310 311 313 313 310 309 309 308 309 306 307 310 312 313 316 316 318 318 318 318 318 320 323 324
305 311 311 310 308 309 304 308 308 307 308 309 309 308 308 308 309 308 310 310 311 311 309 310 310 310 309 309 308 310 311 309 308 313 314 315 317 318 317 318 317 318 318 322 332
309 310 311 309 307 308 301 306 306 307 307 308 309 309 308 309 309 309 310 310 311 311 309 309 309 310 311 310 307 312 312 310 308 310 314 315 316 316 317 317 318 321 321 331 337
308 306 309 308 307 307 304 307 307 306 308 308 308 308 309 308 308 310 311 310 310 311 311 311 310 312 309 309 311 312 313 312 309 309 312 315 315 316 315 316 318 320 333 336 337
307 309 309 308 308 304 305 307 307 307 308 308 308 308 308 308 308 309 309 310 310 310 311 309 308 309 308 311 312 314 316 316 314 308 310 313 315 316 316 317 319 323 335 336 337
307 306 307 307 305 305 305 307 308 308 308 307 306 307 307 307 307 307 308 309 309 309 311 309 310 311 308 311 312 314 315 314 315 317 312 313 313 315 317 317 317 327 335 336 336
309 306 306 302 304 303 305 306 308 308 307 306 307 307 307 308 308 308 309 309 309 309 311 312 312 311 311 312 312 314 315 314 314 315 317 318 317 317 317 316 317 327 334 335 336
306 306 305 305 306 306 305 307 310 308 308 307 307 307 307 307 309 309 308 308 308 307 309 308 312 312 313 312 313 315 316 314 313 314 314 315 317 318 318 328 328 333 335 335 336
298 303 303 305 304 305 307 307 309 308 308 308 307 307 308 308 309 309 308 308 306 306 306 310 312 312 312 314 316 316 314 314 313 314 317 318 317 318 326 330 331 334 335 335 336
Wind_Speed
15 15 16 15 16 18 18 18 17 17 16 17 18 18 18 22 25 25 30 28 24 19 19 10 14 12 17 13 15 14 2 5 6 5 8 10 15 29 21 16 7 4 3 9 8
16 16 17 17 17 17 18 19 18 18 19 17 17 19 21 21 26 31 28 25 25 21 20 24 17 12 10 13 9 8 7 8 8 7 6 19 12 33 12 19 17 8 12 16 25
17 18 18 18 18 18 17 18 19 19 19 19 19 18 19 21 25 11 8 5 15 25 27 21 26 15 14 20 10 9 11 13 18 20 19 21 21 25 18 13 18 8 21 16 21
16 16 17 18 19 19 19 20 19 19 20 19 20 21 19 15 8 11 6 11 6 14 31 31 19 18 7 14 26 9 18 23 27 28 25 18 27 23 26 24 27 28 27 26 18
19 20 20 20 20 20 20 21 21 21 20 21 21 22 23 11 24 10 13 4 1 9 32 30 26 15 7 6 13 19 10 20 24 27 28 30 25 24 32 39 35 33 33 30 27
19 21 22 22 22 22 22 23 23 23 23 21 20 20 16 11 17 11 24 28 10 9 19 30 11 20 10 6 10 5 11 24 24 26 28 21 25 29 33 37 36 36 37 38 38
21 23 24 25 24 24 23 23 22 21 21 23 18 15 15 28 23 20 23 21 16 16 13 24 25 13 8 4 21 19 12 16 21 14 9 17 21 25 36 32 33 33 27 31 38
22 24 24 26 25 25 24 23 19 16 18 18 17 10 13 26 13 22 18 26 22 18 15 12 14 12 23 13 9 4 5 17 16 16 12 8 32 16 14 19 27 32 38 44 44
26 28 30 33 33 31 23 20 14 16 18 16 15 9 16 8 13 7 9 21 23 18 13 12 9 9 4 4 2 6 17 19 19 7 4 14 37 14 26 29 29 31 39 41 39
29 31 33 33 27 24 17 18 16 8 15 19 7 8 11 6 7 19 8 1 11 13 16 10 7 5 4 6 16 12 20 19 18 6 14 19 32 21 32 35 34 40 43 44 46
30 29 28 26 21 16 19 20 21 6 26 15 26 24 40 40 36 26 6 9 12 11 7 5 5 18 23 16 14 7 17 8 5 11 14 19 23 18 20 18 21 30 32 39 42
26 25 27 21 16 10 15 21 18 20 16 28 31 33 38 41 39 52 21 8 1 3 5 5 19 12 7 6 11 13 15 14 9 9 9 13 22 23 22 19 29 33 33 38 39
25 23 21 18 9 10 13 21 18 18 5 16 22 21 20 19 35 41 27 14 5 5 6 10 5 12 15 12 15 16 18 14 10 10 22 13 12 17 20 17 28 30 35 35 29
25 21 15 18 4 15 19 25 17 10 3 6 10 13 23 20 5 17 23 19 6 10 7 9 10 14 10 21 13 19 9 12 15 11 16 7 17 21 22 25 21 21 30 34 35
25 20 11 10 13 16 22 28 7 1 3 11 6 11 16 11 17 9 14 21 17 11 7 8 5 1 12 15 12 20 11 13 14 10 16 17 7 29 7 18 12 14 23 34 39
25 19 12 6 11 17 20 24 2 5 4 6 8 18 16 24 3 5 12 10 13 17 16 13 15 9 9 10 9 5 9 12 16 3 11 9 10 28 16 22 18 7 29 32 32
26 18 11 9 10 15 19 13 4 4 11 14 23 13 10 18 10 11 4 3 1 2 1 8 13 14 15 12 10 5 2 2 3 7 15 11 9 23 7 5 10 14 25 35 35
29 18 9 9 8 12 15 4 6 8 12 20 13 12 7 13 10 13 8 6 3 5 2 2 3 5 2 1 5 6 9 5 7 4 8 7 12 16 16 26 31 36 35 37 37
29 10 6 8 9 9 5 5 2 10 13 11 15 4 4 8 3 9 5 3 3 2 4 2 4 3 10 6 4 5 9 7 5 14 1 6 9 18 23 24 21 21 24 32 26
22 8 6 5 7 8 5 3 4 14 11 10 5 3 4 5 6 9 4 3 8 4 1 2 2 6 5 5 6 8 3 4 3 6 8 6 6 10 7 14 10 12 17 17 19
13 6 6 5 7 4 2 4 10 21 16 3 7 6 3 3 4 2 5 6 8 7 7 3 4 3 5 3 7 1 4 5 4 3 8 6 9 8 12 10 12 17 17 27 35
12 3 4 6 5 3 2 9 15 13 13 3 5 2 2 5 4 4 4 6 11 6 5 2 3 4 9 16 13 6 9 5 5 11 5 11 16 9 9 10 8 10 16 32 39
15 5 3 11 4 3 7 8 12 11 10 1 4 1 1 3 4 4 3 1 13 3 3 5 1 4 9 3 3 4 5 1 4 5 19 8 7 8 12 11 21 7 18 26 34
7 3 6 5 19 3 8 5 9 13 10 16 9 4 6 8 4 6 13 4 9 9 14 2 3 5 5 5 6 8 6 5 0 2 12 18 15 24 19 21 21 13 15 31 35
7 2 4 4 6 7 7 7 8 9 4 9 4 11 12 6 11 6 7 12 6 6 3 5 4 8 13 17 17 18 18 13 9 8 3 7 8 18 17 17 18 20 30 27 30
9 7 8 16 13 6 5 3 12 14 7 7 9 16 13 7 12 16 10 6 8 6 6 6 4 6 14 18 18 20 18 14 15 11 11 17 19 17 20 24 9 28 33 33 33
11 5 7 7 4 3 2 12 12 17 10 17 14 15 8 12 20 27 27 25 13 9 7 6 3 2 6 12 6 6 13 16 6 8 3 7 6 14 13 10 11 24 35 36 36
Wind_Direction
3 0 358 354 348 345 341 337 329 320 310 307 307 306 298 293 282 276 264 257 254 244 238 222 235 225 205 215 202 196 156 236 232 210 252 53 307 292 337 302 177 159 275 174 168
3 0 359 356 353 350 345 341 338 332 326 317 307 299 297 298 291 279 275 263 251 243 237 220 225 207 201 222 212 179 201 230 214 237 300 312 314 302 331 316 303 10 326 274 304
7 3 1 358 354 350 344 338 333 331 328 324 318 308 299 300 303 269 130 218 240 228 226 227 222 224 232 232 209 201 215 226 261 260 268 283 287 271 289 284 286 295 313 308 308
7 3 359 355 350 345 339 334 330 325 322 317 313 309 304 298 261 164 113 83 12 226 215 218 213 219 206 224 231 256 218 222 251 259 264 262 271 280 269 265 279 288 296 299 278
3 359 356 351 345 340 333 328 324 321 315 311 311 310 304 273 250 232 246 239 239 321 212 209 207 212 213 218 233 247 244 225 240 257 256 263 264 263 277 284 284 287 288 288 283
2 357 352 347 341 335 328 322 317 314 310 303 300 298 293 270 294 294 256 251 258 255 223 208 212 220 264 249 223 243 261 257 248 247 255 258 265 266 270 275 286 289 286 286 284
359 357 353 349 343 336 331 324 318 309 299 299 298 291 263 264 294 283 268 246 223 223 220 218 211 212 219 293 262 263 277 281 258 245 251 279 276 254 260 273 275 277 283 289 289
356 358 355 352 346 340 340 339 340 326 294 289 291 282 264 309 295 264 247 238 224 220 229 213 203 238 235 258 300 280 249 247 247 243 248 229 258 256 259 266 272 282 286 286 283
356 356 354 352 349 343 348 348 343 329 307 294 291 297 274 305 284 316 291 239 224 226 229 232 228 227 184 165 324 225 244 242 249 232 228 204 258 255 255 256 266 273 273 275 282
353 354 353 346 337 330 337 341 345 39 22 349 310 301 268 304 290 326 289 269 206 240 244 240 230 194 165 169 213 222 225 235 245 222 234 242 264 265 270 268 268 269 269 270 271
352 348 341 337 332 338 345 360 8 352 318 277 280 264 277 277 279 281 303 332 244 242 172 202 181 216 210 217 234 257 242 269 209 209 233 244 264 267 253 251 263 268 267 262 265
344 344 343 352 349 0 2 3 349 331 296 309 303 287 277 274 270 278 263 298 296 209 177 206 230 228 246 229 228 252 266 268 293 284 256 246 253 264 264 262 254 259 260 259 265
341 344 346 360 31 2 351 339 323 342 299 322 329 317 332 297 243 253 261 269 245 259 235 215 234 215 240 239 244 233 237 253 260 305 290 296 282 284 276 260 264 272 273 275 274
337 340 350 355 343 345 345 343 335 322 25 276 5 341 345 337 275 237 252 229 214 213 248 252 231 253 246 231 235 248 247 244 251 259 260 212 277 265 268 265 265 248 256 264 275
335 335 345 344 347 338 342 339 353 337 38 323 276 302 340 294 302 319 323 204 225 221 178 226 293 191 238 245 235 253 253 236 237 235 248 250 293 267 260 261 250 253 262 268 265
337 334 319 329 334 347 339 335 342 46 322 325 313 354 358 344 283 40 344 191 235 227 224 227 239 247 244 261 262 318 242 240 258 226 251 213 202 272 246 251 251 224 247 253 272
341 331 299 310 335 350 343 336 38 78 318 354 346 355 359 355 20 68 265 170 310 306 249 234 241 242 246 258 268 221 58 248 253 212 236 170 208 235 256 272 230 237 249 256 260
340 325 301 317 332 344 335 37 56 5 344 333 328 317 351 8 352 340 348 64 89 225 176 188 286 181 35 137 249 188 180 194 192 205 241 261 230 244 231 260 268 267 256 268 265
344 349 315 321 349 1 341 40 236 1 352 309 316 349 314 2 335 354 341 317 11 102 135 139 229 331 317 311 148 305 220 201 292 273 275 228 274 279 276 277 274 267 263 257 264
348 358 340 344 349 357 62 300 307 330 351 333 321 342 317 358 9 344 313 4 344 341 59 169 278 253 291 328 240 198 246 188 197 207 240 252 251 236 232 248 273 268 256 219 186
14 8 345 321 319 30 116 248 305 320 324 318 296 305 311 326 220 236 293 331 6 354 345 343 142 294 349 247 232 240 217 193 160 210 221 257 251 196 253 244 274 283 251 175 168
6 22 21 316 3 25 307 304 303 308 348 313 279 295 359 332 333 53 323 298 343 324 326 309 121 276 254 260 252 269 282 175 214 234 248 241 247 304 252 288 293 294 174 164 170
344 317 38 335 22 314 296 300 291 319 322 343 287 294 289 329 327 318 337 311 326 321 334 352 345 305 319 325 199 248 146 352 287 206 238 248 270 222 276 297 286 168 170 154 155
347 350 339 4 351 322 318 293 320 320 311 350 303 12 355 320 217 283 301 267 294 230 241 61 246 218 230 274 325 276 270 303 306 266 243 242 270 273 275 271 283 169 187 155 156
5 329 14 304 328 317 318 287 314 328 311 321 297 341 322 299 306 274 300 304 286 267 137 175 242 237 257 267 273 266 263 246 237 250 249 275 293 273 284 262 270 219 165 155 152
358 349 323 295 291 320 314 336 309 330 313 309 320 311 308 276 279 287 269 263 249 264 185 171 254 267 275 270 259 245 244 235 237 235 250 256 274 282 267 298 229 178 163 162 161
345 330 310 271 287 330 306 320 314 324 308 310 311 306 301 279 294 280 270 259 242 209 198 187 213 260 271 336 331 221 236 223 197 181 206 240 237 298 312 357 324 176 166 161 164